When you browse on this site, cookies collect data to enhance your experience and personalize the content and advertising you see.
Visit our Privacy Policy to learn more. By continuing to use the site, you agree to this use of cookies and data.
  • In Latvia
  • List of Countries
  • For 7 days
  • Water Temperature
  • Weather Map
  • Weather Widgets
  • user-avatar
    Login

    Hourly Weather Novokadamovo

    Today, 26 August, Monday

    Time Temperature Precipitation Wind Pressure Humidity
    00:00 +25°C° 0 mm 5 mps 754 mmHg 38%
    01:00 +23°C° 0 mm 5 mps 754 mmHg 40%
    02:00 +23°C° 0 mm 5 mps 754 mmHg 41%
    03:00 +23°C° 0 mm 4 mps 755 mmHg 41%
    04:00 +22°C° 0 mm 4 mps 755 mmHg 46%
    05:00 +22°C° 0 mm 4 mps 755 mmHg 52%
    06:00 +21°C° 0 mm 4 mps 755 mmHg 57%
    07:00 +22°C° 0 mm 5 mps 755 mmHg 53%
    08:00 +23°C° 0 mm 5 mps 756 mmHg 50%
    09:00 +26°C° 0 mm 5 mps 756 mmHg 46%
    10:00 +27°C° 0 mm 5 mps 756 mmHg 42%
    11:00 +29°C° 0 mm 5 mps 756 mmHg 38%
    12:00 +30°C° 0 mm 5 mps 756 mmHg 34%
    13:00 +30°C° 0 mm 5 mps 756 mmHg 33%
    14:00 +32°C° 0 mm 5 mps 756 mmHg 32%
    15:00 +32°C° 0 mm 5 mps 756 mmHg 31%
    16:00 +30°C° 0 mm 5 mps 755 mmHg 32%
    17:00 +30°C° 0 mm 5 mps 755 mmHg 33%
    18:00 +29°C° 0 mm 5 mps 755 mmHg 34%
    19:00 +27°C° 0 mm 5 mps 755 mmHg 35%
    20:00 +26°C° 0 mm 5 mps 755 mmHg 37%
    21:00 +23°C° 0 mm 4 mps 755 mmHg 39%
    22:00 +22°C° 0 mm 4 mps 755 mmHg 40%
    23:00 +21°C° 0 mm 4 mps 755 mmHg 41%

    Tomorrow, 27 August, Tuesday

    Time Temperature Precipitation Wind Pressure Humidity
    00:00 +21°C° 0 mm 4 mps 755 mmHg 42%
    01:00 +20°C° 0 mm 3 mps 755 mmHg 43%
    02:00 +20°C° 0 mm 3 mps 754 mmHg 44%
    03:00 +19°C° 0 mm 3 mps 754 mmHg 45%
    04:00 +19°C° 0 mm 3 mps 754 mmHg 46%
    05:00 +18°C° 0 mm 3 mps 754 mmHg 48%
    06:00 +18°C° 0 mm 3 mps 754 mmHg 49%
    07:00 +20°C° 0 mm 4 mps 754 mmHg 45%
    08:00 +22°C° 0 mm 4 mps 754 mmHg 41%
    09:00 +25°C° 0 mm 4 mps 754 mmHg 37%
    10:00 +27°C° 0 mm 4 mps 753 mmHg 34%
    11:00 +28°C° 0 mm 4 mps 753 mmHg 31%
    12:00 +29°C° 0 mm 4 mps 753 mmHg 28%
    13:00 +30°C° 0 mm 4 mps 753 mmHg 27%
    14:00 +30°C° 0 mm 4 mps 752 mmHg 26%
    15:00 +32°C° 0 mm 4 mps 752 mmHg 25%
    16:00 +29°C° 0 mm 5 mps 752 mmHg 26%
    17:00 +28°C° 0 mm 5 mps 752 mmHg 28%
    18:00 +27°C° 0 mm 5 mps 752 mmHg 29%
    19:00 +25°C° 0 mm 4 mps 752 mmHg 34%
    20:00 +23°C° 0 mm 4 mps 752 mmHg 39%
    21:00 +21°C° 0 mm 4 mps 752 mmHg 43%
    22:00 +20°C° 0 mm 3 mps 752 mmHg 45%
    23:00 +20°C° 0 mm 3 mps 752 mmHg 48%

    Day after tomorrow, 28 August, Wednesday

    Time Temperature Precipitation Wind Pressure Humidity
    00:00 +19°C° 0 mm 3 mps 752 mmHg 50%
    01:00 +19°C° 0 mm 3 mps 752 mmHg 54%
    02:00 +19°C° 0 mm 3 mps 752 mmHg 59%
    03:00 +18°C° 0 mm 3 mps 752 mmHg 64%
    04:00 +18°C° 0 mm 3 mps 752 mmHg 68%
    05:00 +17°C° 0 mm 3 mps 752 mmHg 73%
    06:00 +17°C° 0 mm 3 mps 752 mmHg 78%
    07:00 +19°C° 0 mm 3 mps 752 mmHg 70%
    08:00 +21°C° 0 mm 4 mps 753 mmHg 62%
    09:00 +23°C° 0 mm 4 mps 753 mmHg 55%
    10:00 +25°C° 0 mm 5 mps 753 mmHg 48%
    11:00 +26°C° 0 mm 5 mps 753 mmHg 42%
    12:00 +27°C° 0 mm 5 mps 752 mmHg 36%
    13:00 +27°C° 0 mm 5 mps 752 mmHg 35%
    14:00 +27°C° 0 mm 6 mps 752 mmHg 34%
    15:00 +27°C° 0 mm 6 mps 752 mmHg 33%
    16:00 +27°C° 0 mm 6 mps 752 mmHg 33%
    17:00 +26°C° 0 mm 6 mps 752 mmHg 34%
    18:00 +24°C° 0 mm 6 mps 752 mmHg 35%
    19:00 +22°C° 0 mm 5 mps 753 mmHg 39%
    20:00 +20°C° 0 mm 5 mps 753 mmHg 43%
    21:00 +19°C° 0 mm 5 mps 754 mmHg 47%
    22:00 +16°C° 0 mm 5 mps 754 mmHg 46%
    23:00 +15°C° 0 mm 5 mps 754 mmHg 45%

    29 August, Thursday

    Time Temperature Precipitation Wind Pressure Humidity
    00:00 +14°C° 0 mm 5 mps 754 mmHg 45%
    01:00 +13°C° 0 mm 4 mps 755 mmHg 48%
    02:00 +13°C° 0 mm 4 mps 755 mmHg 52%
    03:00 +12°C° 0 mm 4 mps 755 mmHg 55%
    04:00 +11°C° 0 mm 4 mps 755 mmHg 58%
    05:00 +10°C° 0 mm 4 mps 756 mmHg 60%
    06:00 +10°C° 0 mm 4 mps 756 mmHg 63%
    07:00 +11°C° 0 mm 4 mps 756 mmHg 58%
    08:00 +13°C° 0 mm 5 mps 756 mmHg 53%
    09:00 +14°C° 0 mm 5 mps 756 mmHg 48%
    10:00 +16°C° 0 mm 5 mps 756 mmHg 42%
    11:00 +19°C° 0 mm 5 mps 756 mmHg 37%
    12:00 +20°C° 0 mm 6 mps 756 mmHg 31%
    13:00 +21°C° 0 mm 6 mps 756 mmHg 29%
    14:00 +21°C° 0 mm 5 mps 755 mmHg 28%
    15:00 +22°C° 0 mm 5 mps 755 mmHg 26%
    16:00 +21°C° 0 mm 5 mps 755 mmHg 27%
    17:00 +21°C° 0 mm 5 mps 755 mmHg 28%
    18:00 +20°C° 0 mm 5 mps 755 mmHg 29%
    19:00 +19°C° 0 mm 5 mps 755 mmHg 32%
    20:00 +17°C° 0 mm 4 mps 755 mmHg 36%
    21:00 +15°C° 0 mm 4 mps 755 mmHg 39%
    22:00 +14°C° 0 mm 4 mps 755 mmHg 41%
    23:00 +14°C° 0 mm 4 mps 755 mmHg 43%

    30 August, Friday

    Time Temperature Precipitation Wind Pressure Humidity
    00:00 +13°C° 0 mm 4 mps 755 mmHg 45%
    01:00 +12°C° 0 mm 4 mps 754 mmHg 48%
    02:00 +12°C° 0 mm 4 mps 754 mmHg 51%
    03:00 +11°C° 0 mm 4 mps 754 mmHg 54%
    04:00 +11°C° 0 mm 4 mps 754 mmHg 55%
    05:00 +11°C° 0 mm 4 mps 754 mmHg 56%
    06:00 +10°C° 0 mm 4 mps 754 mmHg 57%
    07:00 +13°C° 0 mm 4 mps 754 mmHg 51%
    08:00 +15°C° 0 mm 4 mps 754 mmHg 45%
    09:00 +18°C° 0 mm 4 mps 754 mmHg 40%
    10:00 +19°C° 0 mm 5 mps 754 mmHg 35%
    11:00 +20°C° 0 mm 5 mps 754 mmHg 29%
    12:00 +22°C° 0 mm 5 mps 754 mmHg 24%
    13:00 +23°C° 0 mm 5 mps 753 mmHg 23%
    14:00 +23°C° 0 mm 5 mps 753 mmHg 22%
    15:00 +25°C° 0 mm 5 mps 753 mmHg 21%
    16:00 +23°C° 0 mm 5 mps 752 mmHg 25%
    17:00 +23°C° 0 mm 4 mps 752 mmHg 28%
    18:00 +23°C° 0 mm 4 mps 752 mmHg 31%
    19:00 +21°C° 0 mm 3 mps 752 mmHg 37%
    20:00 +20°C° 0 mm 3 mps 752 mmHg 43%
    21:00 +18°C° 0 mm 2 mps 752 mmHg 49%
    22:00 +18°C° 0 mm 3 mps 752 mmHg 54%
    23:00 +18°C° 0 mm 3 mps 753 mmHg 60%

    31 August, Saturday

    Time Temperature Precipitation Wind Pressure Humidity
    00:00 +17°C° 0 mm 4 mps 753 mmHg 65%
    01:00 +15°C° 0 mm 4 mps 753 mmHg 70%
    02:00 +15°C° 0 mm 4 mps 753 mmHg 74%
    03:00 +14°C° 0 mm 4 mps 753 mmHg 78%
    04:00 +13°C° 0 mm 4 mps 753 mmHg 81%
    05:00 +12°C° 0 mm 4 mps 754 mmHg 83%
    06:00 +10°C° 0 mm 4 mps 754 mmHg 86%
    07:00 +12°C° 0 mm 4 mps 754 mmHg 76%
    08:00 +13°C° 0 mm 4 mps 754 mmHg 65%
    09:00 +14°C° 0 mm 5 mps 755 mmHg 55%
    10:00 +16°C° 0 mm 5 mps 755 mmHg 45%
    11:00 +19°C° 0 mm 5 mps 755 mmHg 35%
    12:00 +21°C° 0 mm 5 mps 755 mmHg 25%
    13:00 +22°C° 0 mm 4 mps 754 mmHg 23%
    14:00 +22°C° 0 mm 4 mps 754 mmHg 21%
    15:00 +23°C° 0 mm 4 mps 754 mmHg 19%
    16:00 +22°C° 0 mm 4 mps 754 mmHg 20%
    17:00 +22°C° 0 mm 4 mps 754 mmHg 22%
    18:00 +21°C° 0 mm 4 mps 754 mmHg 23%
    19:00 +19°C° 0 mm 3 mps 754 mmHg 27%
    20:00 +17°C° 0 mm 3 mps 754 mmHg 30%
    21:00 +16°C° 0 mm 2 mps 755 mmHg 33%
    22:00 +15°C° 0 mm 2 mps 755 mmHg 35%
    23:00 +14°C° 0 mm 2 mps 755 mmHg 37%
    Show more